Orbital Elements
The following orbital elements are taken from MPC 55982:
Epoch 2006 May 25.0 TT = JDT 2453880.5
T 2006 June 6.8079 TT MPC
q 1.562114 (2000.0) P Q
n 0.1786149 Peri. 208.7505 -0.0334558 +0.9892636
a 3.122657 Node 59.6578 -0.8825395 +0.0375602
e 0.499749 Incl. 9.4880 -0.4690466 -0.1412332
P 5.52
From 111 observations 2000-2006, mean residual 0".8. Nongravitational
parameters A1 = +0.44, A2 = -0.6966.
|